This is the latest recevied weather packets stored in our database for station/object W7PLC. If no packets are shown the sender has not sent any weather packets the latest 10 day(s).
| Time | Temp. | Humidity | Pressure | Rain* | Wind** | Luminosity | Snow |
|---|---|---|---|---|---|---|---|
| 1777929307 | 27.78° C | 51% | 1009.2 hPa | 0 mm | - | 651 W/m² | - |
| 1777927487 | 25.56° C | 55% | 1009.3 hPa | 0 mm | - | 642 W/m² | - |
| 1777926579 | 27.78° C | 49% | 1009.5 hPa | 0 mm | - | 711 W/m² | - |
| 1777925367 | 26.11° C | 55% | 1009.7 hPa | 0 mm | - | 583 W/m² | - |
| 1777925064 | 26.67° C | 52% | 1009.7 hPa | 0 mm | - | 623 W/m² | - |
| 1777923545 | 24.44° C | 57% | 1009.6 hPa | 0 mm | - | 609 W/m² | - |
| 1777923242 | 25.56° C | 54% | 1009.4 hPa | 0 mm | - | 582 W/m² | - |
| 1777922941 | 25.56° C | 54% | 1009.7 hPa | 0 mm | - | 520 W/m² | - |
| 1777922638 | 26.11° C | 52% | 1009.6 hPa | 0 mm | - | 606 W/m² | - |
| 1777919907 | 25.56° C | 56% | 1010 hPa | 0 mm | - | 641 W/m² | - |
| 1777919605 | 24.44° C | 57% | 1010.1 hPa | 0 mm | - | 634 W/m² | - |
| 1777919302 | 23.89° C | 58% | 1010.3 hPa | 0 mm | - | 631 W/m² | - |
| 1777919000 | 23.89° C | 57% | 1010.3 hPa | 0 mm | - | 596 W/m² | - |
| 1777918696 | 25° C | 56% | 1010.1 hPa | 0 mm | - | 587 W/m² | - |
| 1777918394 | 23.33° C | 60% | 1010.2 hPa | 0 mm | - | 598 W/m² | - |
| 1777918093 | 23.89° C | 57% | 1010.2 hPa | 0 mm | - | 635 W/m² | - |
| 1777917791 | 23.89° C | 60% | 1010.4 hPa | 0 mm | - | 627 W/m² | - |
| 1777916581 | 22.22° C | 59% | 1010.4 hPa | 0 mm | - | 534 W/m² | - |
| 1777916277 | 21.67° C | 60% | 1010.1 hPa | 0 mm | - | 510 W/m² | - |
| 1777915974 | 22.78° C | 60% | 1010.4 hPa | 0 mm | - | 480 W/m² | - |
| 1777915670 | 21.11° C | 62% | 1010.2 hPa | 0 mm | - | 501 W/m² | - |
| 1777915367 | 21.11° C | 63% | 1010.3 hPa | 0 mm | - | 530 W/m² | - |
| 1777915063 | 21.11° C | 62% | 1010.3 hPa | 0 mm | - | 523 W/m² | - |
| 1777914761 | 22.22° C | 61% | 1010.1 hPa | 0 mm | - | 532 W/m² | - |
| 1777914458 | 21.11° C | 63% | 1010.1 hPa | 0 mm | - | 489 W/m² | - |
* Rain latest hour (hover to see other rain measurements)
** Current wind speed in m/s (hover to see current wind gust speed)